Sussex, NJ

1:12 AM EDT on July 21, 2017 (GMT -0400)
Sussex

Weather History for KFWN - November, 2013

Change the Weather History Date:

Sunday, November 17, 2013

  Actual Average Record
Temperature  
Mean Temperature 52 °F -  
Max Temperature 61 °F 49 °F 79 °F (1990)
Min Temperature 43 °F 26 °F 12 °F (1967)
Degree Days  
Heating Degree Days 13    
Growing Degree Days 2 (Base 50)    
Moisture  
Dew Point 49 °F    
Average Humidity 94    
Maximum Humidity 100    
Minimum Humidity 83    
Precipitation  
Precipitation 0.02 in - - ()
Sea Level Pressure  
Sea Level Pressure 30.11 in    
Wind  
Wind Speed 1 mph (South)    
Max Wind Speed 13 mph    
Max Gust Speed 21 mph    
Visibility 5 miles    
Events Rain    
Averages and records for this station are not official NWS values.
T = Trace of Precipitation, MM = Missing Value Source: NWS Daily Summary

Daily Weather History Graph

Daily Weather History Graph

Search for Another Location

Airport or City:

Trip Planner

Search our weather history database for the weather conditions in past years. The results will help you decide how hot, cold, wet, or windy it might be!

Date:

Astronomy

Nov. 17, 2013 Rise Set
Actual Time 6:49 AM EST 4:37 PM EST
Civil Twilight 6:19 AM EST 5:07 PM EST
Nautical Twilight 5:45 AM EST 5:40 PM EST
Astronomical Twilight 5:13 AM EST 6:13 PM EST
Moon 4:52 PM EST (11/17) 6:40 AM EST (11/17)
Length of Visible Light 10h 47m
Length of Day
9h 48m
Full, 100% of the Moon is Illuminated
Nov 17
Full
Nov 25
Last Quarter
Dec 2
New
Dec 9
First Quarter
Dec 17
Full

Hourly Weather History & Observations

Time (EST) Temp. Dew Point Humidity Pressure Visibility Wind Dir Wind Speed Gust Speed Precip Events Conditions
12:53 AM 43.0 °F 39.0 °F 86% 30.25 in 10.0 mi Calm Calm - N/A   Overcast
1:53 AM 43.0 °F 39.9 °F 89% 30.25 in 7.0 mi Calm Calm - N/A   Overcast
2:17 AM 43.0 °F 41.0 °F 93% 30.23 in 5.0 mi Calm Calm - N/A   Overcast
2:53 AM 43.0 °F 42.1 °F 97% 30.24 in 6.0 mi Calm Calm - 0.00 in   Overcast
3:25 AM 44.1 °F 43.0 °F 96% 30.23 in 3.0 mi Calm Calm - N/A   Overcast
3:37 AM 44.1 °F 43.0 °F 96% 30.23 in 2.5 mi Calm Calm - 0.00 in Rain Light Rain
3:53 AM 44.1 °F 43.0 °F 96% 30.24 in 2.5 mi Calm Calm - 0.00 in   Overcast
4:08 AM 44.1 °F 44.1 °F 100% 30.22 in 2.0 mi Calm Calm - N/A   Overcast
4:41 AM 45.0 °F 44.1 °F 97% 30.22 in 1.8 mi Calm Calm - N/A   Overcast
4:53 AM 44.1 °F 44.1 °F 100% 30.22 in 1.2 mi Calm Calm - 0.00 in   Overcast
5:07 AM 44.1 °F 44.1 °F 100% 30.21 in 1.5 mi Calm Calm - N/A   Overcast
5:14 AM 44.1 °F 44.1 °F 100% 30.21 in 1.2 mi Calm Calm - N/A   Overcast
5:36 AM 45.0 °F 44.1 °F 97% 30.20 in 1.2 mi Calm Calm - 0.01 in   Overcast
5:53 AM 45.0 °F 44.1 °F 97% 30.21 in 1.5 mi Calm Calm - 0.01 in   Overcast
6:23 AM 45.0 °F 44.1 °F 97% 30.20 in 2.5 mi Calm Calm - N/A   Overcast
6:34 AM 45.0 °F 45.0 °F 100% 30.20 in 2.5 mi Calm Calm - N/A   Overcast
6:40 AM 45.0 °F 45.0 °F 100% 30.20 in 2.5 mi Calm Calm - N/A   Overcast
6:53 AM 45.0 °F 45.0 °F 100% 30.21 in 3.0 mi Calm Calm - N/A   Overcast
7:00 AM 46.0 °F 45.0 °F 96% 30.20 in 2.5 mi Calm Calm - 0.00 in Rain Light Rain
7:31 AM 46.0 °F 45.0 °F 96% 30.19 in 1.5 mi Calm Calm - 0.00 in   Overcast
7:53 AM 46.0 °F 46.0 °F 100% 30.20 in 1.8 mi Calm Calm - 0.00 in   Overcast
8:05 AM 46.9 °F 46.0 °F 97% 30.19 in 2.0 mi Calm Calm - N/A   Overcast
8:53 AM 48.9 °F 48.0 °F 97% 30.19 in 2.5 mi Calm Calm - 0.00 in   Overcast
9:09 AM 48.9 °F 48.0 °F 97% 30.19 in 3.0 mi Calm Calm - N/A   Overcast
9:48 AM 51.8 °F 50.0 °F 94% 30.19 in 4.0 mi Calm Calm - N/A   Overcast
9:53 AM 52.0 °F 51.1 °F 97% 30.20 in 4.0 mi Calm Calm - N/A   Overcast
10:53 AM 54.0 °F 52.0 °F 93% 30.17 in 5.0 mi Calm Calm - 0.01 in   Overcast
11:09 AM 55.9 °F 53.1 °F 90% 30.14 in 5.0 mi Calm Calm - N/A   Overcast
11:53 AM 57.9 °F 54.0 °F 87% 30.13 in 8.0 mi Calm Calm - N/A   Overcast
12:53 PM 57.0 °F 55.0 °F 93% 30.09 in 3.0 mi SSE 4.6 mph - 0.00 in Rain Light Rain
1:12 PM 59.0 °F 55.9 °F 90% 30.08 in 10.0 mi South 4.6 mph - 0.00 in   Overcast
1:53 PM 60.1 °F 55.9 °F 86% 30.07 in 10.0 mi SW 3.5 mph - 0.00 in   Overcast
2:53 PM 57.9 °F 55.9 °F 93% 30.05 in 10.0 mi South 4.6 mph - 0.00 in   Overcast
3:53 PM 57.9 °F 55.9 °F 93% 30.03 in 8.0 mi Calm Calm - 0.00 in   Overcast
4:02 PM 57.9 °F 55.0 °F 90% 30.02 in 10.0 mi Calm Calm - 0.00 in Rain Light Rain
4:17 PM 57.0 °F 55.0 °F 93% 30.01 in 8.0 mi Calm Calm - 0.00 in   Overcast
4:53 PM 57.0 °F 55.0 °F 93% 30.00 in 9.0 mi Calm Calm - 0.00 in   Mostly Cloudy
5:08 PM 57.0 °F 55.0 °F 93% 29.98 in 8.0 mi SSE 3.5 mph - N/A   Mostly Cloudy
5:33 PM 57.0 °F 55.0 °F 93% 29.97 in 8.0 mi SSE 3.5 mph - N/A   Mostly Cloudy
5:53 PM 57.0 °F 55.0 °F 93% 29.97 in 7.0 mi Calm Calm - N/A   Overcast
6:30 PM 55.9 °F 55.0 °F 97% 29.96 in 6.0 mi Calm Calm - N/A   Overcast
6:53 PM 55.0 °F 55.0 °F 100% 29.95 in 5.0 mi Calm Calm - N/A   Overcast
7:06 PM 55.9 °F 55.0 °F 97% 29.93 in 5.0 mi Calm Calm - N/A   Mostly Cloudy
7:50 PM 57.2 °F 55.4 °F 94% 29.92 in 9.0 mi SSW 3.5 mph - N/A   Mostly Cloudy
7:53 PM 57.0 °F 55.0 °F 93% 29.92 in 9.0 mi SSW 3.5 mph - N/A   Mostly Cloudy
8:53 PM 60.1 °F 55.9 °F 86% 29.88 in 10.0 mi SSW 6.9 mph - N/A   Overcast
9:53 PM 60.1 °F 55.9 °F 86% 29.85 in 10.0 mi South 10.4 mph - 0.00 in   Overcast
10:53 PM 61.0 °F 55.9 °F 83% 29.79 in 10.0 mi South 12.7 mph 20.7 mph N/A   Overcast
11:53 PM 61.0 °F 55.9 °F 83% 29.75 in 10.0 mi South 11.5 mph 19.6 mph 0.00 in Rain Light Rain